Hourly Data Report for October 02, 2016

All times are specified in Local Standard Time (LST). Add 1 hour to adjust for Daylight Saving Time where and when it is observed.

RANKIN INLET A
NUNAVUT

62°48'38.000" N
92°06'53.000" W
32.30 m
2303405
71083
YRT

Download Data

Hourly Data (October 2016)
Hourly Data Report for October 2, 2016
Temp Definition
°C
Dew Point Temp Definition
°C
Rel Hum Definition
%
Wind Dir Definition
10's deg

Wind Spd Definition
km/h
Visibility Definition
km
Stn Press Definition
kPa
Hmdx Definition


Wind Chill Definition


Weather Definition


TIME
00:00 Legend Double Dagger 0.7 -0.5 92 31 23 24.1 102.48     Mostly Cloudy
01:00 Legend Double Dagger 0.8 -0.2 93 31 23 24.1 102.48     LegendNANA
02:00 Legend Double Dagger 0.9 -0.1 93 32 20 24.1 102.49     LegendNANA
03:00 Legend Double Dagger 0.0 -0.9 94 31 17 24.1 102.51   -5 Mostly Cloudy
04:00 Legend Double Dagger 0.3 -0.4 95 31 13 24.1 102.54     LegendNANA
05:00 Legend Double Dagger 0.8 0.1 95 35 17 24.1 102.52     LegendNANA
06:00 Legend Double Dagger 0.4 -0.3 95 33 13 24.1 102.49     Mostly Cloudy
07:00 Legend Double Dagger 0.6 0.2 97 31 16 16.1 102.52     LegendNANA
08:00 Legend Double Dagger 1.1 -0.1 92 33 17 16.1 102.49     LegendNANA
09:00 Legend Double Dagger 1.3 -0.3 89 35 20 16.1 102.50     Mostly Cloudy
10:00 Legend Double Dagger 0.6 -0.6 92 1 19 16.1 102.46     LegendNANA
11:00 Legend Double Dagger 0.8 -0.8 89 36 14 16.1 102.44     LegendNANA
12:00 Legend Double Dagger 0.8 -1.3 86 34 6 16.1 102.39     Cloudy
13:00 Legend Double Dagger 0.8 -1.3 86 35 5 16.1 102.32     LegendNANA
14:00 Legend Double Dagger 1.0 -1.4 84 36 5 16.1 102.27     LegendNANA
15:00 Legend Double Dagger 1.1 -1.3 84 0 1 16.1 102.19     Cloudy
16:00 Legend Double Dagger 1.0 -1.6 83 15 3 16.1 102.11     LegendNANA
17:00 Legend Double Dagger 1.3 -0.6 87 18 8 16.1 102.05     LegendNANA
18:00 Legend Double Dagger 1.4 -0.4 88 16 15 16.1 101.91     Cloudy
19:00 Legend Double Dagger 2.0 0.2 88 15 21 24.1 101.78     LegendNANA
20:00 Legend Double Dagger 2.1 0.5 89 16 28 24.1 101.63     LegendNANA
21:00 Legend Double Dagger 1.1 0.5 96 14 22 9.7 101.48     Rain
22:00 Legend Double Dagger 1.1 0.5 96 14 22 9.7 101.38     Snow
23:00 Legend Double Dagger 2.2 1.5 95 14 30 9.7 101.19     Snow

Notes on Data Quality.

Legend

  • E = Estimated
  • M = Missing
  • NA = Not Available
  • ‡ = Partner data that is not subject to review by the National Climate Archives
Date modified: